Regional Weather Roundup
Issued by NWS

Home | Current Version | Previous Version | Text Only | Print | Product List | Glossary Off
Versions: 1 2 3 4 5 6 7 8 9 10 11 12 13 14 15 16 17 18 19 20 21 22 23 24 25 26 27 28 29 30 31 32 33 34 35 36 37 38 39 40 41 42 43 44 45 46 47 48 49 50

857
ASUS43 KIND 171209
RWRIN

WEATHER ROUNDUP FOR INDIANA
NATIONAL WEATHER SERVICE INDIANAPOLIS IN
700 AM EST TUE JAN 17 2017

NOTE: "FAIR" INDICATES FEW OR NO CLOUDS BELOW 12,000 FEET WITH NO
SIGNIFICANT WEATHER AND/OR OBSTRUCTIONS TO VISIBILITY.

* - STATION DOES NOT REPORT WEATHER SUCH AS PRECIPITATION OR FOG.

+ - STATION NOT QUALITY CONTROLLED BY THE NATIONAL WEATHER SERVICE.
    USE DATA WITH CAUTION...ESPECIALLY DEWPOINT AND RELATIVE
    HUMIDITY OBSERVATIONS.

INZ001>003-010>013-019-020-171300-
NORTHWEST INDIANA

CITY           SKY/WX    TMP DP  RH WIND       PRES   REMARKS
GARY /AIRPORT/ CLOUDY    45  45 100 W17       29.76R FOG
KNOX *+        CLOUDY    46  37  71 W14G25    29.76R
LA PORTE +     CLOUDY    47  47 100 SW10      29.75R FOG
6HR MIN TEMP:  38; 6HR MAX TEMP:  50; 6HR PCP:  0.14;

MICHIGAN CITY+ CLOUDY    46  46 100 SW9       29.75R
MONTICELLO +   CLOUDY    48  46  93 W15G22    29.80R
6HR MIN TEMP:  48; 6HR MAX TEMP:  54; 6HR PCP:  0.17;

RENSSELAER +   CLOUDY    45  45 100 SW16G23   29.81R FOG
VALPARAISO     CLOUDY    45  45 100 SW13      29.77R FOG
6HR MIN TEMP:  40; 6HR MAX TEMP:  52; 6HR PCP:  0.29;


$$

LMZ046-743>745-171300-
SOUTHERN LAKE MICHIGAN

STATION/POSITION TIME  TEMP    WIND        PRES    WAVE
                       AIR SEA DIR/SP/G            HT
                 (UTC) (F)     (DEG/KT/KT) (MB)    (FT)
BURNS HARBOR     1140   44     240/ 13/ 17 1008.1R

$$

INZ004-005-014>016-021>024-171300-
NORTH CENTRAL INDIANA

CITY           SKY/WX    TMP DP  RH WIND       PRES   REMARKS
GOSHEN         CLOUDY    51  48  89 S7        29.73F
6HR MIN TEMP:  41; 6HR MAX TEMP:  51; 6HR PCP:  0.44;

LOGANSPORT +   CLOUDY    50  50 100 W17       29.81R
PERU/GRISSOM   CLOUDY    53  53 100 W16G24    29.77R
6HR MIN TEMP:  48; 6HR MAX TEMP:  54; 6HR PCP:  0.21;

ROCHESTER +    CLOUDY    54  54 100 SW13      29.78R
SOUTH BEND     CLOUDY    50  50 100 SW15G24   29.75R
6HR MIN TEMP:  40; 6HR MAX TEMP:  50; 6HR PCP:  0.15;

WARSAW +       CLOUDY    52  48  87 S5        29.74F

$$

INZ006>009-017-018-025>027-171300-
NORTHEAST INDIANA

CITY           SKY/WX    TMP DP  RH WIND       PRES   REMARKS
ANGOLA *+      CLOUDY    41  34  75 SE3       29.76F
AUBURN +       LGT RAIN  46  45  93 CALM      29.77F VSB 1/2
FORT WAYNE     LGT RAIN  51  50  96 S9        29.77F FOG
6HR MIN TEMP:  43; 6HR MAX TEMP:  52; 6HR PCP:  0.25;

HUNTINGTON +   LGT RAIN  52  51  96 S8        29.75F
6HR MIN TEMP:  46; 6HR MAX TEMP:  53; 6HR PCP:  0.21;

KENDALLVILLE + LGT RAIN  41  41 100 CALM      29.76F VSB 1/2

$$

INZ028-029-035-036-043>045-051>053-171300-
WEST CENTRAL INDIANA

CITY           SKY/WX    TMP DP  RH WIND       PRES   REMARKS
CRAWFORDSVL +  CLOUDY    50  50 100 W10G16    29.85R
6HR MIN TEMP:  50; 6HR MAX TEMP:  55; 6HR PCP:  0.07;

GREENCASTLE +  CLOUDY    50  50 100 W7G16     29.87R
LAFAYETTE      CLOUDY    50  48  93 W17G26    29.82R
6HR MIN TEMP:  50; 6HR MAX TEMP:  56; 6HR PCP:  0.11;

TERRE HAUTE    CLOUDY    52  47  83 W8        29.88R
6HR MIN TEMP:  50; 6HR MAX TEMP:  58; 6HR PCP:  0.02;


$$

INZ030>032-037>040-046>048-054>057-064-065-171300-
CENTRAL INDIANA

CITY           SKY/WX    TMP DP  RH WIND       PRES   REMARKS
CP ATTERBURY + MOCLDY    59  54  82 SW14      29.85R
FISHERS *+     CLOUDY    54  54 100 W13G23    29.84
FRANKFORT +    CLOUDY    54  51  90 W16G23    29.84R
6HR MIN TEMP:  54; 6HR MAX TEMP:  58; 6HR PCP:  0.24;

GREENWOOD *+   CLOUDY    57  53  87 W13G29    29.85R
6HR MIN TEMP:  54; 6HR MAX TEMP:  59;

INDIANAPOLIS   CLOUDY    53  50  89 W15       29.85R
6HR MIN TEMP:  52; 6HR MAX TEMP:  58; 6HR PCP:  0.06;

-EAGLE CREEK   CLOUDY    54  49  83 W10G23    29.83R
6HR MIN TEMP:  52; 6HR MAX TEMP:  58; 6HR PCP:  0.05;

KOKOMO +       CLOUDY    54  52  93 W15       29.80R
6HR MIN TEMP:  49; 6HR MAX TEMP:  55; 6HR PCP:  0.43;

MARION +       CLOUDY    55  54  94 SW21G26   29.79R
MT COMFORT *+  CLOUDY    55  54  94 W24       29.84R
SHELBYVILLE    LGT RAIN  57  54  89 S15       29.83R
6HR MIN TEMP:  53; 6HR MAX TEMP:  57; 6HR PCP:  0.06;

ZIONSVILLE +   CLOUDY    53  51  94 SW14      29.84R
6HR MIN TEMP:  51; 6HR MAX TEMP:  55; 6HR PCP:  0.10;


$$

INZ033-034-041-042-049-050-058-059-171300-
EAST CENTRAL INDIANA

CITY           SKY/WX    TMP DP  RH WIND       PRES   REMARKS
MUNCIE         LGT RAIN  58  55  90 SW12G24   29.79S
6HR MIN TEMP:  54; 6HR MAX TEMP:  58; 6HR PCP:  0.06;


$$

INZ060-061-067>069-081>083-085>088-171300-
SOUTHWEST INDIANA

CITY           SKY/WX    TMP DP  RH WIND       PRES   REMARKS
EVANSVILLE     PTCLDY    56  54  93 SW9       29.92R
6HR MIN TEMP:  56; 6HR MAX TEMP:  61; 6HR PCP:  0.11;

HUNTINGBURG *+ MOCLDY    57  55  94 SW13      29.92R
6HR MIN TEMP:  57; 6HR MAX TEMP:  61; 6HR PCP: 29.95;

WASHINGTON +   CLOUDY    53  49  86 W10       29.91R
6HR MIN TEMP:  53; 6HR MAX TEMP:  60;


$$

INZ062-063-066-070>080-084-089>092-171300-
SOUTH CENTRAL AND SOUTHEAST INDIANA

CITY           SKY/WX    TMP DP  RH WIND       PRES   REMARKS
BLOOMINGTON    CLOUDY    54  49  83 NW10G20   29.87R
6HR MIN TEMP:  54; 6HR MAX TEMP:  60; 6HR PCP:  0.02;

MADISON *+     CLOUDY    57  55  94 S8        29.91S
NORTH VERNON + CLOUDY   N/A N/A N/A S13       29.88S
SEYMOUR +      MOCLDY    59  57  94 SW13      29.87

$$





USA.gov is the U.S. government's official web portal to all federal, state and local government web resources and services.